Dewpoint
-14 -14 -14 -15 -16 -17 -18 -20 -22 -24 -25 -27 -28 -29 -30 -30 -29 -25 -20 -16 -13 -13 -13 -6 -5 -1 2 4 4 4 1 5 5 7 6 7 8 9 9 9 10 10 11 10 10
-16 -17 -18 -18 -18 -19 -20 -22 -23 -25 -26 -27 -28 -29 -30 -30 -30 -27 -16 -16 -15 -11 -8 -10 -8 -6 -3 -0 1 -0 -0 0 1 3 5 6 7 9 9 10 11 10 10 10 10
-15 -17 -18 -19 -20 -21 -22 -23 -24 -25 -26 -27 -28 -29 -30 -30 -29 -17 -7 -6 -14 -12 -5 -5 -5 -6 -3 0 -1 -2 -0 -2 -2 -2 0 3 7 9 10 10 10 10 9 10 10
-14 -16 -18 -18 -19 -21 -23 -23 -24 -25 -26 -27 -28 -28 -29 -30 -25 -7 -7 -7 -11 -12 -5 -5 -5 -2 -2 -1 -1 -1 -2 -3 -3 -5 -3 3 6 9 9 9 9 9 9 10 10
-8 -14 -16 -17 -19 -20 -22 -23 -24 -25 -25 -26 -27 -28 -29 -25 -29 -21 -11 -13 -11 -12 -9 -5 -7 -6 -1 -2 -3 -3 -4 -6 -7 -6 1 6 8 9 10 9 9 9 9 10 10
-2 -7 -13 -16 -18 -19 -21 -22 -23 -24 -25 -26 -27 -27 -25 -15 -29 -29 -29 -21 -15 -8 -7 -6 -7 -9 -5 -2 -4 -7 -7 -7 -6 7 7 8 8 9 10 9 9 9 10 9 9
1 -1 -8 -15 -17 -18 -21 -22 -22 -23 -25 -25 -26 -26 -23 -30 -29 -26 -13 -12 -9 -7 -8 -8 -7 -8 -6 -5 -6 -6 -6 -4 2 3 6 4 8 11 10 8 8 9 9 8 8
3 1 -4 -13 -16 -18 -20 -22 -22 -23 -24 -24 -24 -22 -24 -30 -30 -30 -16 -7 -7 -6 -9 -8 -9 -8 -7 -6 -7 -6 -7 -4 2 6 4 3 12 10 9 8 6 7 7 8 8
4 3 -1 -9 -14 -17 -20 -21 -22 -23 -24 -24 -21 -13 -20 -23 -27 -26 -27 -8 -7 -11 -10 -7 -7 -7 -7 -6 -5 -6 -5 -5 -3 8 6 6 11 8 6 6 5 5 6 6 5
4 3 1 -6 -12 -16 -19 -20 -21 -22 -22 -18 -7 -8 -24 -21 -9 -9 -26 -8 -10 -11 -8 -6 -6 -6 -6 -6 -3 -4 -5 -5 4 6 9 9 8 6 6 5 5 5 5 5 5
4 3 3 -3 -10 -15 -19 -19 -9 1 2 -15 -15 -17 -21 -8 -7 -9 -15 -11 -13 -10 -9 -7 -6 -5 -6 -6 -6 -6 -5 0 5 5 8 9 8 7 6 6 6 6 4 4 4
4 3 3 -1 -9 -14 -15 -6 6 5 4 0 -0 1 -19 -10 -4 -7 -11 -14 -12 -10 -6 -6 -5 -7 -7 -6 -5 -5 -3 6 6 6 8 8 9 7 6 6 6 4 2 2 2
4 3 3 -0 -9 -14 -15 -1 5 7 4 -0 -0 0 -3 -5 -3 -7 -12 -12 -11 -10 -5 -5 -6 -6 -6 -5 -4 -4 -3 5 6 6 7 7 8 7 5 5 5 3 2 2 2
4 4 3 -1 -10 -11 -13 5 6 7 -5 -8 3 -0 2 -2 -4 -9 -8 -8 -7 -9 -5 -5 -6 -6 -5 -4 -4 -3 -5 4 7 8 11 5 11 7 5 4 3 2 1 1 1
5 3 3 0 -6 -7 5 5 5 7 -15 -8 4 -1 0 -4 -11 -9 -11 -9 -6 -5 -5 -4 -5 -5 -4 -5 -5 -4 2 5 5 3 5 5 7 6 5 6 4 2 1 1 2
4 3 3 1 -6 -7 5 5 6 -0 -12 3 0 -0 -3 -6 -9 -10 -11 -9 -8 -7 -7 -6 -7 -8 -8 -10 -6 -1 -2 -3 -4 -2 5 5 5 6 7 6 4 2 1 1 2
4 3 3 2 -6 -5 4 6 4 -2 -8 -3 -4 -4 -5 -5 -7 -8 -8 -6 -5 -4 -4 -6 -7 -8 -10 -10 -8 -8 -7 -2 -1 2 2 5 5 5 4 4 4 3 2 2 0
5 3 3 2 -4 -4 3 7 -2 -8 2 -5 -7 -6 -8 -7 -9 -9 -7 -7 -7 -6 -5 -4 -3 -7 -11 -9 -8 -7 -7 -2 -3 6 7 5 7 5 3 4 4 3 2 1 0
4 3 2 -1 -1 -5 2 8 -2 0 -2 -7 -8 -7 -9 -10 -8 -6 -6 -6 -6 -7 -4 -3 -4 -8 -8 -9 -8 -5 -2 -3 6 6 7 6 5 3 3 2 1 1 1 0 0
4 3 2 -2 -4 -6 5 5 1 3 1 -8 -6 -8 -7 -9 -4 -5 -5 -6 -7 -7 -6 -3 -3 -4 -6 -5 -5 -6 -4 -1 3 8 7 8 7 5 5 3 1 0 0 -0 -1
3 2 -2 -8 -5 0 6 3 2 -1 1 -1 -8 -7 -8 -6 -5 -5 -5 -3 -7 -4 -5 -3 -3 -3 -5 -4 -3 -4 -4 -0 3 5 6 8 8 4 4 3 2 1 0 -0 -1
3 0 5 -3 2 4 5 2 -2 -3 -3 -1 -4 -6 -6 -4 -2 -1 -1 -2 -3 -4 -2 -1 -0 0 -4 -2 -7 -8 -3 -3 -1 1 7 6 6 3 2 2 1 1 0 -0 -1
1 -0 6 -1 -1 1 0 -1 -5 -8 -6 -3 -2 -3 -4 1 1 -0 -1 -2 -1 -2 -2 -2 0 2 0 -3 -5 -3 -3 -2 1 4 6 4 5 2 2 2 1 1 0 -0 -1
-1 3 5 4 4 -1 -4 -5 -10 -17 -12 -8 -3 -1 1 1 1 1 0 -2 -2 1 -1 -1 1 1 2 -0 -3 -1 -0 -1 -2 1 6 5 6 4 3 2 1 1 0 -0 -1
-1 3 3 3 5 5 1 -10 -6 -15 -3 -4 -2 -1 1 1 1 1 -2 -1 -1 -0 -0 -1 -1 -1 -1 -2 -1 0 0 1 5 4 2 5 6 4 3 2 1 1 0 -1 -1
-1 3 3 3 -1 5 4 -6 -3 -13 -4 -2 -2 -0 -0 0 -1 1 -2 -1 0 -1 -0 -2 -2 -1 0 -0 0 3 3 4 4 4 5 5 5 2 2 2 1 0 -0 -1 -1
2 1 2 1 1 1 2 -1 -3 -6 -2 3 2 1 0 -0 -2 -3 -4 -2 -1 0 1 -1 0 0 1 -1 -2 0 -0 1 2 3 4 5 3 2 2 2 1 0 -0 -1 -1
Wind_Speed
18 19 20 19 19 19 19 21 20 19 18 18 19 20 19 19 17 18 18 8 7 11 9 7 8 7 7 6 4 2 4 2 4 6 4 6 4 4 3 10 5 3 1 8 22
17 18 20 20 19 19 20 18 20 19 18 18 18 19 20 19 19 17 7 10 12 9 10 12 9 8 5 4 3 3 3 8 6 5 5 10 7 14 8 12 4 9 11 17 24
18 18 19 19 19 19 19 17 19 19 18 18 17 18 19 18 16 2 4 4 14 14 9 10 7 6 4 4 5 4 5 4 9 17 16 11 10 14 11 4 10 20 25 28 28
18 18 18 19 18 18 18 18 17 18 18 18 18 18 19 13 3 3 4 7 11 17 14 11 9 7 4 4 6 3 9 10 13 19 5 6 15 7 5 7 12 13 21 25 25
18 19 18 19 17 18 17 17 15 18 17 16 17 18 17 8 12 10 5 4 4 15 15 15 12 8 5 5 4 4 5 8 14 19 6 12 9 8 15 9 13 19 21 24 24
19 19 19 19 18 17 17 15 14 15 17 15 16 17 16 8 8 8 16 12 6 11 14 15 6 12 5 5 6 4 8 13 9 6 5 10 7 6 12 18 23 22 24 22 22
20 20 20 19 18 16 16 14 14 13 16 14 15 16 19 24 11 9 9 8 8 5 7 13 15 7 7 2 4 6 4 4 14 12 3 4 10 9 16 20 25 23 22 18 16
21 21 20 18 18 17 15 14 13 13 14 14 13 14 14 17 14 18 10 12 13 8 5 4 7 11 5 2 5 3 4 3 5 18 9 7 4 9 15 28 29 30 26 20 14
20 21 20 18 19 16 13 13 12 12 13 12 11 9 13 9 10 11 18 15 11 7 6 7 8 5 3 4 5 6 2 3 3 24 1 7 7 13 19 27 26 28 27 21 20
20 20 21 18 18 15 11 10 10 11 10 9 12 6 13 3 5 6 17 19 11 4 6 7 6 3 3 4 3 3 1 3 3 7 17 18 14 14 13 28 23 24 21 21 20
20 19 21 19 16 15 8 7 4 4 11 11 5 7 8 3 5 7 14 20 11 7 5 4 4 5 7 7 5 3 3 4 2 4 9 14 13 10 11 19 21 17 17 24 24
20 18 20 19 14 13 8 3 2 5 9 17 25 30 26 23 9 6 13 14 8 5 4 5 4 8 6 5 5 4 5 4 5 7 8 12 11 8 8 9 12 15 20 24 26
17 17 18 18 13 11 8 6 3 4 5 9 17 19 23 10 8 10 18 12 5 6 5 6 3 8 5 4 4 4 6 6 6 7 7 13 5 4 7 10 12 11 17 22 24
17 15 16 16 8 8 5 5 1 2 3 6 6 8 15 9 4 16 17 12 3 10 8 5 5 4 4 5 7 5 7 15 17 4 5 1 3 3 5 7 9 12 18 20 18
16 15 15 12 8 6 5 5 4 2 2 3 4 4 16 15 4 9 14 5 8 6 7 8 5 4 3 6 8 6 10 11 6 6 5 3 4 3 9 6 7 12 18 18 15
16 15 15 14 13 6 6 5 6 4 6 3 7 6 6 5 2 4 14 5 6 5 1 5 1 3 6 2 5 12 8 9 5 3 2 2 3 3 5 6 9 15 18 18 15
14 16 16 15 7 7 5 5 3 4 4 5 5 6 4 5 2 3 6 6 6 5 3 1 3 3 4 4 4 7 6 3 1 1 4 1 3 1 5 9 16 22 23 20 17
14 18 19 19 11 10 5 1 5 6 6 1 5 7 6 5 4 3 7 6 1 5 4 5 1 6 3 6 7 3 7 5 5 5 3 2 3 2 3 12 21 22 22 21 18
13 17 25 18 13 12 5 3 7 6 5 7 5 5 4 3 5 4 7 9 7 7 6 5 2 2 1 2 6 3 3 5 7 3 3 1 1 2 5 8 16 20 22 21 19
13 17 31 17 13 15 3 5 5 5 4 1 6 5 7 6 5 4 7 5 6 9 2 4 4 3 2 4 8 4 6 3 3 4 3 2 2 3 6 7 9 14 21 20 17
15 6 6 15 18 11 4 6 5 13 10 7 5 5 6 7 6 3 7 1 3 4 5 4 4 2 3 5 4 2 3 6 5 3 4 1 3 1 8 11 12 17 20 19 17
10 2 4 26 7 5 5 5 4 6 6 7 5 4 8 6 3 4 7 5 4 7 7 2 5 4 3 3 2 3 4 4 4 3 2 3 2 7 8 17 19 20 19 16 15
12 8 6 31 5 3 4 5 4 3 3 3 3 4 3 6 6 3 4 1 4 3 7 6 3 4 6 6 5 6 3 4 6 3 3 4 3 5 13 14 16 20 18 16 17
8 2 6 12 5 4 4 6 6 8 6 5 3 5 5 4 5 5 3 3 3 4 7 7 4 6 7 6 4 4 4 3 4 3 5 2 5 2 6 8 14 16 17 18 18
12 5 7 6 7 3 0 3 4 5 6 4 1 4 6 5 4 4 3 3 5 2 4 4 5 4 6 4 6 4 3 5 4 4 2 7 6 9 9 11 17 18 18 19 17
10 4 3 7 15 8 3 6 7 6 3 3 3 4 5 9 7 8 8 3 5 4 4 4 2 1 9 8 7 6 7 9 6 6 7 8 5 7 11 17 18 17 18 18 16
20 11 5 7 6 8 5 6 8 3 6 3 2 4 5 4 9 16 7 11 9 7 4 4 6 3 2 2 5 4 2 3 4 3 7 5 5 11 8 14 18 18 17 16 15
Wind_Direction
279 283 285 287 289 292 295 301 302 304 307 310 312 309 307 305 304 298 290 291 245 220 215 175 180 177 171 202 222 179 65 207 228 169 235 176 170 131 150 143 145 159 137 149 157
285 282 281 283 286 288 291 297 300 302 305 306 311 309 310 311 313 307 294 254 215 210 182 186 190 190 180 208 219 133 143 216 219 194 203 194 176 159 159 164 120 95 102 134 151
290 285 285 282 282 284 288 292 299 302 304 307 310 310 311 319 323 86 19 264 200 192 185 185 177 176 190 193 204 185 217 209 261 251 253 181 172 186 144 269 203 178 157 155 152
295 289 286 285 284 283 283 289 294 297 301 305 307 308 307 313 299 171 66 60 182 185 190 187 172 166 165 195 208 226 242 241 283 288 247 192 177 129 88 327 246 168 151 150 150
304 294 289 287 287 285 283 284 288 293 294 298 300 303 308 287 259 253 261 303 174 188 195 193 196 180 182 199 198 215 271 291 280 286 281 136 94 108 48 63 119 130 138 142 150
310 303 293 288 287 285 281 281 282 286 288 293 294 297 299 286 264 250 242 241 220 206 203 205 214 208 206 214 178 218 251 288 309 29 62 104 80 87 79 109 108 121 131 141 149
309 310 301 288 287 284 281 279 279 277 282 287 288 294 287 261 267 264 244 204 191 212 227 225 215 181 191 234 260 271 287 31 18 5 81 321 34 53 110 102 105 116 122 128 143
307 311 310 293 286 283 279 276 274 272 275 282 288 293 269 274 254 255 233 205 187 200 251 224 200 233 239 284 358 21 51 60 10 4 22 34 66 40 104 111 97 110 117 127 137
300 310 312 300 287 281 279 275 271 270 270 276 283 275 264 271 272 254 222 207 195 233 200 134 146 195 159 88 13 0 228 79 1 20 259 55 100 75 102 100 89 96 108 118 130
290 305 311 305 290 283 281 278 271 267 257 261 248 279 254 255 281 242 199 201 199 189 144 183 180 111 46 85 206 247 50 79 63 8 65 78 79 68 74 92 93 93 108 123 129
282 296 307 307 292 285 278 283 253 251 230 215 199 229 283 251 300 220 202 196 197 192 154 183 119 184 199 187 173 172 121 108 128 183 70 86 85 87 95 96 104 116 116 129 125
277 290 303 306 291 279 280 240 115 310 295 252 248 257 255 272 298 248 194 171 167 180 123 32 224 205 189 156 164 177 129 102 82 111 88 105 91 116 104 103 118 124 128 127 126
265 284 298 306 287 276 260 176 281 309 259 271 232 240 240 238 221 239 184 169 135 149 164 147 247 128 163 199 190 193 166 176 145 103 79 127 104 122 80 112 108 120 134 138 143
254 274 296 308 284 257 216 180 216 279 11 261 216 237 189 182 251 222 189 162 154 180 144 205 244 188 170 232 151 265 188 145 148 117 155 230 215 195 153 128 110 129 143 146 147
242 264 287 300 265 237 180 185 177 186 322 191 174 158 170 167 125 207 190 184 157 154 125 233 173 156 173 219 160 224 122 124 110 85 106 0 88 309 137 165 151 160 163 164 154
233 252 274 287 266 226 217 190 159 57 249 197 145 154 147 201 136 140 172 165 146 120 154 215 187 183 208 110 148 132 83 63 57 84 47 205 128 210 187 170 165 172 177 172 164
225 247 265 273 255 224 241 171 88 177 310 197 168 144 135 159 179 155 153 144 146 118 226 17 241 269 183 128 91 72 82 67 2 25 226 2 127 283 254 173 172 168 179 178 171
222 244 261 263 254 244 274 154 195 216 222 178 116 119 166 146 238 159 120 173 204 108 119 159 279 185 191 182 173 143 149 155 209 192 229 18 197 273 4 115 146 166 172 172 174
238 246 262 246 265 234 231 187 210 207 199 153 79 106 198 198 144 135 168 180 189 181 141 147 279 324 338 116 125 179 80 151 106 52 96 171 322 32 84 78 122 149 166 171 176
234 251 262 248 238 200 195 247 240 217 345 165 149 152 171 185 145 134 166 175 195 200 160 191 105 24 112 88 42 124 151 84 28 140 242 244 213 209 178 159 145 153 170 176 177
207 240 263 193 181 174 209 239 276 271 248 187 182 150 178 153 147 141 180 1 216 157 159 135 107 290 49 21 161 63 63 55 109 109 161 179 272 337 180 168 170 172 179 180 181
189 190 235 166 146 192 220 212 280 271 232 244 165 131 164 135 121 117 158 221 161 163 148 132 113 70 96 330 63 88 99 116 116 221 72 130 251 326 156 161 169 176 181 182 180
171 224 213 172 168 216 266 276 266 294 283 314 229 174 130 134 112 125 131 48 168 121 158 185 32 85 357 355 5 65 44 88 97 95 168 131 221 21 112 131 168 165 172 173 170
173 203 156 205 223 161 182 259 228 258 253 244 259 105 105 94 26 152 117 46 99 99 106 97 88 146 174 193 143 86 46 91 99 108 159 175 146 129 125 135 148 154 164 164 165
192 235 176 185 221 198 234 262 203 241 222 222 240 194 149 115 91 114 106 103 44 107 61 88 88 91 31 83 83 82 70 58 81 123 118 169 126 177 168 158 153 157 157 158 160
178 230 187 175 173 183 204 241 212 212 265 240 214 154 184 146 167 180 132 144 173 38 75 29 110 1 36 33 77 85 72 82 68 101 69 99 79 135 137 138 143 157 163 164 165
213 246 287 178 162 172 217 238 219 216 243 237 255 116 106 177 141 135 103 111 126 125 107 88 134 88 118 86 31 38 253 105 111 76 135 144 182 142 121 132 157 163 169 163 163
Height
1522 1522 1522 1522 1521 1521 1520 1520 1519 1517 1515 1514 1513 1511 1508 1506 1506 1505 1504 1507 1507 1508 1511 1513 1514 1515 1517 1519 1518 1519 1529 1537 1526 1526 1516 1512 1514 1515 1517 1517 1519 1519 1522 1524 1531
1519 1519 1519 1519 1518 1518 1518 1517 1517 1516 1514 1513 1511 1509 1507 1503 1502 1500 1501 1501 1504 1506 1509 1511 1513 1515 1517 1518 1519 1519 1531 1525 1513 1511 1511 1510 1511 1513 1516 1516 1520 1522 1526 1531 1535
1517 1516 1516 1516 1515 1515 1515 1514 1514 1513 1512 1510 1509 1507 1506 1503 1501 1498 1498 1498 1500 1504 1508 1511 1512 1515 1517 1518 1518 1517 1522 1514 1508 1507 1506 1508 1510 1510 1513 1519 1514 1515 1522 1528 1527
1514 1513 1513 1513 1512 1512 1512 1512 1511 1511 1510 1508 1507 1505 1504 1504 1506 1498 1498 1497 1499 1503 1506 1508 1512 1514 1515 1517 1515 1517 1510 1510 1505 1503 1503 1504 1504 1511 1516 1518 1515 1518 1526 1533 1537
1512 1512 1511 1510 1509 1508 1508 1509 1508 1508 1508 1507 1505 1504 1504 1502 1498 1498 1497 1498 1500 1502 1504 1506 1509 1511 1514 1513 1513 1514 1508 1506 1503 1500 1501 1503 1507 1513 1523 1522 1520 1524 1531 1538 1544
1511 1510 1509 1507 1506 1505 1505 1505 1505 1505 1504 1504 1503 1502 1503 1502 1494 1494 1494 1496 1499 1501 1503 1504 1507 1508 1510 1510 1512 1508 1507 1504 1502 1503 1504 1506 1513 1514 1532 1528 1527 1532 1538 1544 1546
1510 1508 1507 1505 1502 1501 1502 1502 1502 1501 1502 1501 1501 1500 1499 1491 1491 1491 1493 1494 1497 1500 1501 1502 1506 1508 1508 1508 1507 1506 1507 1504 1508 1508 1509 1510 1522 1536 1536 1534 1534 1538 1543 1548 1551
1507 1506 1503 1501 1500 1499 1499 1499 1499 1498 1498 1498 1498 1499 1492 1486 1486 1488 1491 1493 1495 1498 1500 1502 1503 1507 1508 1507 1506 1508 1509 1519 1515 1510 1510 1509 1545 1542 1540 1537 1540 1540 1546 1551 1555
1505 1503 1501 1498 1498 1496 1496 1496 1495 1495 1495 1496 1497 1497 1487 1482 1482 1484 1487 1491 1495 1497 1499 1501 1503 1504 1506 1511 1520 1518 1523 1518 1516 1519 1516 1519 1545 1548 1546 1542 1543 1545 1548 1554 1558
1502 1501 1499 1496 1495 1494 1493 1493 1493 1493 1493 1494 1494 1498 1483 1481 1480 1481 1484 1488 1493 1495 1498 1500 1501 1505 1510 1517 1535 1523 1520 1523 1529 1535 1528 1536 1551 1552 1552 1544 1549 1553 1555 1557 1562
1500 1499 1497 1494 1493 1492 1492 1492 1495 1493 1489 1483 1483 1481 1479 1479 1479 1479 1481 1485 1491 1494 1497 1497 1504 1512 1509 1507 1508 1510 1516 1526 1534 1534 1537 1545 1551 1555 1556 1554 1553 1556 1560 1561 1564
1496 1496 1494 1492 1491 1491 1491 1491 1492 1494 1486 1478 1478 1476 1477 1478 1481 1478 1479 1483 1488 1495 1494 1501 1506 1499 1499 1503 1507 1511 1518 1535 1535 1534 1537 1548 1553 1556 1557 1557 1559 1562 1564 1564 1566
1492 1492 1491 1489 1489 1489 1489 1491 1492 1491 1486 1472 1469 1470 1472 1477 1477 1476 1478 1478 1484 1492 1494 1501 1494 1493 1495 1499 1505 1509 1516 1528 1529 1536 1539 1543 1553 1556 1560 1562 1563 1566 1567 1567 1567
1489 1489 1489 1488 1491 1487 1488 1489 1490 1489 1493 1471 1466 1462 1467 1472 1473 1473 1476 1477 1482 1489 1493 1495 1488 1490 1495 1499 1501 1509 1498 1509 1523 1530 1549 1537 1558 1557 1559 1562 1566 1568 1568 1570 1572
1485 1486 1487 1487 1486 1486 1487 1488 1489 1490 1502 1462 1462 1461 1462 1467 1467 1469 1473 1475 1480 1482 1488 1492 1488 1490 1494 1492 1493 1500 1498 1509 1522 1531 1538 1546 1555 1557 1558 1564 1568 1569 1569 1571 1573
1481 1483 1484 1484 1484 1486 1485 1486 1489 1499 1496 1459 1456 1459 1463 1463 1464 1468 1470 1474 1476 1480 1483 1485 1484 1484 1485 1484 1487 1496 1507 1519 1526 1534 1549 1541 1549 1556 1560 1556 1564 1566 1568 1570 1573
1477 1479 1480 1481 1482 1483 1484 1486 1495 1497 1457 1457 1457 1457 1461 1464 1465 1467 1470 1475 1484 1495 1493 1484 1484 1480 1479 1486 1491 1496 1512 1543 1546 1548 1550 1539 1547 1553 1550 1549 1550 1559 1565 1569 1573
1472 1474 1476 1477 1480 1482 1484 1487 1489 1464 1459 1446 1450 1458 1463 1461 1464 1466 1471 1480 1475 1479 1496 1498 1500 1482 1476 1479 1489 1492 1503 1531 1533 1552 1545 1540 1548 1552 1552 1548 1552 1559 1564 1569 1573
1468 1471 1470 1473 1477 1480 1486 1484 1469 1457 1447 1447 1451 1460 1461 1458 1462 1464 1471 1478 1473 1472 1487 1495 1490 1476 1476 1475 1479 1494 1507 1503 1530 1538 1545 1553 1553 1552 1554 1556 1558 1561 1565 1568 1572
1465 1468 1464 1470 1474 1478 1483 1470 1457 1447 1443 1443 1452 1454 1466 1462 1463 1465 1470 1467 1469 1467 1467 1476 1492 1479 1477 1478 1481 1483 1494 1512 1524 1539 1540 1547 1547 1549 1554 1558 1560 1562 1564 1568 1572
1465 1467 1461 1462 1469 1476 1474 1465 1451 1442 1444 1444 1444 1453 1454 1458 1460 1463 1468 1464 1463 1466 1468 1473 1483 1486 1481 1491 1492 1494 1500 1511 1518 1530 1539 1544 1548 1541 1545 1550 1555 1559 1562 1566 1571
1459 1464 1457 1458 1466 1466 1465 1457 1448 1441 1439 1438 1437 1440 1449 1450 1458 1460 1464 1464 1462 1462 1471 1471 1486 1505 1497 1491 1488 1489 1499 1507 1525 1527 1542 1544 1552 1543 1539 1547 1552 1558 1562 1567 1571
1455 1457 1453 1456 1462 1463 1458 1453 1449 1442 1437 1435 1434 1434 1437 1449 1460 1459 1459 1460 1460 1461 1469 1471 1492 1513 1510 1500 1491 1499 1501 1507 1514 1524 1536 1540 1552 1546 1545 1550 1555 1558 1563 1567 1572
1452 1455 1452 1456 1454 1455 1455 1452 1449 1438 1438 1434 1432 1432 1438 1447 1451 1460 1460 1460 1460 1462 1464 1466 1491 1498 1516 1504 1500 1503 1506 1505 1511 1528 1537 1539 1550 1550 1550 1552 1557 1561 1564 1568 1572
1445 1444 1440 1449 1450 1452 1452 1446 1444 1442 1434 1431 1430 1431 1436 1451 1454 1459 1458 1460 1462 1463 1465 1471 1496 1498 1502 1497 1500 1507 1509 1509 1518 1524 1525 1536 1542 1547 1549 1551 1556 1560 1565 1569 1573
1438 1439 1437 1438 1444 1451 1451 1445 1441 1437 1434 1430 1432 1430 1434 1443 1443 1457 1456 1460 1463 1466 1469 1476 1501 1497 1510 1506 1505 1517 1519 1520 1524 1530 1534 1538 1544 1544 1549 1552 1557 1561 1565 1569 1572
1437 1436 1437 1434 1439 1446 1444 1439 1435 1434 1430 1428 1429 1430 1433 1432 1434 1440 1448 1450 1455 1464 1474 1482 1497 1508 1518 1511 1512 1524 1517 1518 1524 1526 1531 1538 1538 1543 1550 1553 1558 1561 1565 1569 1573